Weather History for KJYM - March, 2013

Change the Weather History Date:

Saturday, March 2, 2013

  Actual Average Record
Temperature  
Mean Temperature 20 °F -  
Max Temperature 25 °F 42 °F 63 °F (1992)
Min Temperature 15 °F 21 °F -10 °F (1978)
Degree Days  
Heating Degree Days 45    
Moisture  
Dew Point 17 °F    
Average Humidity 76    
Maximum Humidity 86    
Minimum Humidity 68    
Precipitation  
Precipitation 0.00 in - - ()
Sea Level Pressure  
Sea Level Pressure 30.04 in    
Wind  
Wind Speed 7 mph (NNW)    
Max Wind Speed 13 mph    
Max Gust Speed -    
Visibility 9 miles    
Events Snow    
Averages and records for this station are not official NWS values.
T = Trace of Precipitation, MM = Missing Value Source: NWS Daily Summary

Daily Weather History Graph

Daily Weather History Graph

Search for Another Location

Airport or City:

Trip Planner

Search our weather history database for the weather conditions in past years. The results will help you decide how hot, cold, wet, or windy it might be!

Date:

Astronomy

Mar. 02, 2013 Rise Set
Actual Time 7:11 AM EST 6:30 PM EST
Civil Twilight 6:43 AM EST 6:58 PM EST
Nautical Twilight 6:11 AM EST 7:30 PM EST
Astronomical Twilight 5:38 AM EST 8:02 PM EST
Moon No Moon Rise 9:33 AM EST (3/2)
Length of Visible Light 12h 14m
Length of Day
11h 18m
Waning Gibbous, 74% of the Moon is Illuminated
Mar 2
Waning Gibbous
Mar 4
Last Quarter
Mar 11
New
Mar 19
First Quarter
Mar 27
Full

Hourly Weather History & Observations

Time (EST) Temp. Windchill Dew Point Humidity Pressure Visibility Wind Dir Wind Speed Gust Speed Precip Events Conditions
12:14 AM 24.6 °F 17.7 °F 18.7 °F 78% 30.05 in 10.0 mi North 5.8 mph - N/A   Overcast
12:34 AM 24.6 °F 17.7 °F 18.9 °F 79% 30.05 in 10.0 mi North 5.8 mph - N/A   Overcast
12:55 AM 24.6 °F 17.7 °F 18.9 °F 79% 30.05 in 10.0 mi NNE 5.8 mph - N/A   Overcast
1:14 AM 24.6 °F 16.7 °F 18.7 °F 78% 30.05 in 10.0 mi North 6.9 mph - N/A   Overcast
1:34 AM 24.6 °F 14.4 °F 18.0 °F 76% 30.05 in 10.0 mi NE 10.4 mph - N/A   Overcast
1:55 AM 24.6 °F 16.7 °F 17.6 °F 75% 30.05 in 10.0 mi North 6.9 mph - N/A   Overcast
2:14 AM 23.7 °F 14.7 °F 16.2 °F 73% 30.05 in 10.0 mi North 8.1 mph - N/A   Overcast
2:35 AM 23.5 °F 16.4 °F 16.3 °F 74% 30.05 in 10.0 mi North 5.8 mph - N/A   Overcast
2:55 AM 23.4 °F 17.4 °F 17.1 °F 77% 30.05 in 10.0 mi North 4.6 mph - N/A Snow Light Snow
3:14 AM 23.4 °F 18.9 °F 17.4 °F 78% 30.04 in 10.0 mi North 3.5 mph - N/A Snow Light Snow
3:35 AM 23.4 °F 17.4 °F 17.6 °F 79% 30.04 in 10.0 mi North 4.6 mph - N/A   Overcast
3:55 AM 23.4 °F 17.4 °F 17.6 °F 79% 30.04 in 10.0 mi North 4.6 mph - N/A Snow Light Snow
4:14 AM 23.4 °F 18.9 °F 17.8 °F 79% 30.03 in 10.0 mi NNW 3.5 mph - N/A   Overcast
4:35 AM 23.5 °F 16.4 °F 17.2 °F 77% 30.03 in 10.0 mi NNW 5.8 mph - N/A Snow Light Snow
4:55 AM 24.1 °F 17.0 °F 17.4 °F 76% 30.03 in 10.0 mi North 5.8 mph - N/A   Overcast
5:14 AM 24.1 °F 18.2 °F 17.8 °F 77% 30.03 in 10.0 mi NNW 4.6 mph - N/A Snow Light Snow
5:35 AM 24.1 °F 16.0 °F 17.4 °F 76% 30.03 in 10.0 mi NNW 6.9 mph - N/A   Overcast
5:54 AM 23.5 °F 15.4 °F 17.1 °F 76% 30.03 in 10.0 mi North 6.9 mph - N/A Snow Light Snow
6:14 AM 23.4 °F 15.2 °F 17.4 °F 78% 30.03 in 10.0 mi NNW 6.9 mph - N/A Snow Light Snow
6:35 AM 23.2 °F 14.1 °F 17.4 °F 79% 30.04 in 10.0 mi North 8.1 mph - N/A Snow Light Snow
6:54 AM 22.6 °F 12.6 °F 17.2 °F 80% 30.04 in 7.0 mi NNW 9.2 mph - N/A Snow Light Snow
7:14 AM 22.5 °F 14.1 °F 17.1 °F 80% 30.04 in 10.0 mi NNW 6.9 mph - N/A Snow Light Snow
7:35 AM 22.5 °F 13.2 °F 17.2 °F 80% 30.05 in 5.0 mi NNW 8.1 mph - N/A Snow Light Snow
7:54 AM 22.1 °F 13.7 °F 17.4 °F 82% 30.05 in 4.0 mi NNW 6.9 mph - N/A Snow Light Snow
8:15 AM 21.9 °F 12.5 °F 17.4 °F 83% 30.05 in 5.0 mi NNW 8.1 mph - N/A Snow Light Snow
8:35 AM 21.9 °F 11.7 °F 17.6 °F 83% 30.06 in 5.0 mi NNW 9.2 mph - N/A Snow Light Snow
8:54 AM 22.3 °F 12.2 °F 17.6 °F 82% 30.05 in 7.0 mi NNW 9.2 mph - N/A Snow Light Snow
9:15 AM 21.9 °F 11.0 °F 17.1 °F 82% 30.05 in 7.0 mi NW 10.4 mph - N/A Snow Light Snow
9:35 AM 22.5 °F 12.4 °F 17.2 °F 80% 30.05 in 7.0 mi NW 9.2 mph - N/A Snow Light Snow
9:54 AM 22.5 °F 12.4 °F 17.2 °F 80% 30.05 in 10.0 mi NW 9.2 mph - N/A Snow Light Snow
10:15 AM 22.6 °F 11.9 °F 17.2 °F 80% 30.05 in 10.0 mi NW 10.4 mph - N/A Snow Light Snow
10:34 AM 22.8 °F 11.5 °F 17.4 °F 80% 30.05 in 5.0 mi NW 11.5 mph - N/A Snow Light Snow
10:55 AM 23.2 °F 13.3 °F 17.4 °F 79% 30.05 in 5.0 mi NNW 9.2 mph - N/A Snow Light Snow
11:14 AM 23.4 °F 12.2 °F 17.1 °F 77% 30.05 in 7.0 mi NW 11.5 mph - N/A Snow Light Snow
11:34 AM 23.5 °F 11.8 °F 16.9 °F 76% 30.05 in 10.0 mi NW 12.7 mph - N/A Snow Light Snow
11:54 AM 24.1 °F 13.7 °F 16.9 °F 74% 30.05 in 10.0 mi NW 10.4 mph - N/A Snow Light Snow
12:14 PM 24.1 °F 13.7 °F 16.5 °F 73% 30.04 in 10.0 mi NW 10.4 mph - N/A Snow Light Snow
12:35 PM 24.4 °F 13.0 °F 16.9 °F 73% 30.04 in 10.0 mi NW 12.7 mph - N/A Snow Light Snow
12:54 PM 24.6 °F 15.1 °F 16.9 °F 72% 30.04 in 10.0 mi NW 9.2 mph - N/A Snow Light Snow
1:15 PM 24.6 °F 14.4 °F 17.1 °F 73% 30.03 in 10.0 mi NW 10.4 mph - N/A   Overcast
1:35 PM 25.2 °F 17.3 °F 17.2 °F 72% 30.03 in 10.0 mi North 6.9 mph - N/A   Overcast
1:54 PM 25.5 °F 17.8 °F 17.4 °F 71% 30.02 in 10.0 mi NNW 6.9 mph - N/A   Overcast
2:15 PM 25.2 °F 18.3 °F 17.2 °F 72% 30.02 in 10.0 mi North 5.8 mph - N/A   Overcast
2:35 PM 25.2 °F 18.3 °F 16.7 °F 70% 30.02 in 10.0 mi North 5.8 mph - N/A   Overcast
2:54 PM 25.3 °F 16.7 °F 16.5 °F 69% 30.02 in 10.0 mi North 8.1 mph - N/A   Overcast
3:15 PM 25.5 °F 16.2 °F 16.3 °F 68% 30.02 in 10.0 mi North 9.2 mph - N/A   Overcast
3:34 PM 25.5 °F 19.9 °F 16.3 °F 68% 30.02 in 10.0 mi North 4.6 mph - N/A   Overcast
3:54 PM 25.2 °F 16.5 °F 16.9 °F 71% 30.02 in 10.0 mi North 8.1 mph - N/A   Overcast
4:15 PM 25.2 °F 16.5 °F 16.5 °F 70% 30.02 in 10.0 mi North 8.1 mph - N/A   Overcast
4:34 PM 25.2 °F 16.5 °F 16.5 °F 70% 30.02 in 10.0 mi North 8.1 mph - N/A   Overcast
4:54 PM 24.8 °F 17.9 °F 16.5 °F 71% 30.03 in 10.0 mi North 5.8 mph - N/A   Overcast
5:15 PM 24.4 °F 15.6 °F 16.3 °F 71% 30.03 in 10.0 mi NNW 8.1 mph - N/A   Overcast
5:34 PM 24.4 °F 15.6 °F 16.3 °F 71% 30.03 in 10.0 mi North 8.1 mph - N/A Snow Light Snow
5:55 PM 24.3 °F 15.4 °F 16.3 °F 72% 30.03 in 10.0 mi North 8.1 mph - N/A   Overcast
6:14 PM 24.1 °F 16.0 °F 16.2 °F 72% 30.04 in 10.0 mi NW 6.9 mph - N/A   Overcast
6:34 PM 24.1 °F 15.2 °F 16.3 °F 72% 30.04 in 10.0 mi North 8.1 mph - N/A   Overcast
6:55 PM 23.5 °F 15.4 °F 16.9 °F 76% 30.05 in 10.0 mi NW 6.9 mph - N/A   Overcast
7:14 PM 23.5 °F 16.4 °F 16.5 °F 75% 30.05 in 10.0 mi North 5.8 mph - N/A Snow Light Snow
7:35 PM 23.4 °F 13.5 °F 16.3 °F 75% 30.05 in 10.0 mi NNW 9.2 mph - N/A   Overcast
7:55 PM 23.2 °F 12.0 °F 16.2 °F 75% 30.05 in 10.0 mi NW 11.5 mph - N/A   Overcast
8:14 PM 22.8 °F 15.5 °F 16.0 °F 75% 30.04 in 10.0 mi North 5.8 mph - N/A   Overcast
8:35 PM 22.5 °F 16.3 °F 15.8 °F 76% 30.04 in 10.0 mi North 4.6 mph - N/A   Overcast
8:55 PM 22.5 °F 16.3 °F 15.8 °F 76% 30.04 in 10.0 mi NNW 4.6 mph - N/A   Overcast
9:14 PM 22.5 °F 14.1 °F 15.4 °F 74% 30.04 in 10.0 mi NNW 6.9 mph - N/A   Overcast
9:35 PM 21.7 °F 14.3 °F 14.7 °F 74% 30.04 in 10.0 mi NW 5.8 mph - N/A   Overcast
9:54 PM 20.1 °F 11.3 °F 14.0 °F 77% 30.05 in 10.0 mi NW 6.9 mph - N/A   Scattered Clouds
10:14 PM 19.0 °F 11.1 °F 13.3 °F 78% 30.05 in 10.0 mi NW 5.8 mph - N/A   Mostly Cloudy
10:34 PM 18.0 °F 11.1 °F 12.9 °F 81% 30.04 in 10.0 mi NW 4.6 mph - N/A   Mostly Cloudy
10:54 PM 17.2 °F - 12.6 °F 82% 30.04 in 10.0 mi Calm Calm - N/A   Mostly Cloudy
11:14 PM 16.2 °F 10.6 °F 11.8 °F 83% 30.04 in 10.0 mi NW 3.5 mph - N/A   Overcast
11:34 PM 15.4 °F - 11.8 °F 86% 30.03 in 10.0 mi Calm Calm - N/A   Overcast
11:55 PM 16.3 °F 10.8 °F 12.9 °F 86% 30.03 in 10.0 mi WNW 3.5 mph - N/A   Overcast